KF0RY-10 Weather Reports


Display with metric or nautical units.
time (UTC)temp
F
wind
direction
speed
MPH
gust
MPH
rain 1hr
in
rain 24hr
in
rain mn
in
humidity
%
barometer
mb
20260905045016 60 303 0.0 2.0 0.00 0.00 0.00 77 1014.9
20260905044516 60 67 0.0 3.0 0.00 0.00 0.00 75 1014.9
20260905044037 60 67 3.0 6.0 0.00 0.00 0.00 78 1014.8
20260905043538 60 68 2.0 4.0 0.00 0.00 0.00 79 1014.8
20260905043017 60 84 0.0 2.0 0.00 0.00 0.00 79 1014.8
20260905042517 60 326 0.0 2.0 0.00 0.00 0.00 79 1014.9
20260905042036 60 336 1.0 2.0 0.00 0.00 0.00 79 1014.9
20260905041516 60 334 1.0 3.0 0.00 0.00 0.00 78 1015.0
20260905041017 60 28 1.0 2.0 0.00 0.00 0.00 78 1015.0
20260905040517 60 352 0.0 2.0 0.00 0.00 0.00 78 1015.0
20260905040017 61 236 0.0 2.0 0.00 0.00 0.00 78 1015.0
20260905035517 61 79 1.0 4.0 0.00 0.00 0.00 77 1014.9
20260905035018 61 42 0.0 4.0 0.00 0.00 0.00 76 1014.9
20260905034517 61 54 1.0 4.0 0.00 0.00 0.00 75 1014.8
20260905034018 61 73 2.0 4.0 0.00 0.00 0.00 73 1014.7
20260905033521 61 62 1.0 3.0 0.00 0.00 0.00 73 1014.7
20260905033018 61 79 0.0 2.0 0.00 0.00 0.00 73 1014.7
20260905032517 61 63 1.0 3.0 0.00 0.00 0.00 73 1014.7
20260905032018 62 67 1.0 5.0 0.00 0.00 0.00 72 1014.6
20260905031518 62 69 3.0 8.0 0.00 0.00 0.00 71 1014.6
20260905031018 62 69 4.0 7.0 0.00 0.00 0.00 70 1014.5
20260905030518 62 81 4.0 10.0 0.00 0.00 0.00 70 1014.5
20260905030019 62 90 2.0 6.0 0.00 0.00 0.00 70 1014.4
20260905025519 62 126 2.0 4.0 0.00 0.00 0.00 69 1014.4
20260905025040 63 133 2.0 5.0 0.00 0.00 0.00 68 1014.3
20260905024519 63 76 3.0 7.0 0.00 0.00 0.00 68 1014.3
20260905024019 63 65 4.0 9.0 0.00 0.00 0.00 67 1014.3
20260905023515 64 73 3.0 7.0 0.00 0.00 0.00 65 1014.3
20260905023036 64 138 2.0 6.0 0.00 0.00 0.00 64 1014.2
20260905022516 64 76 2.0 6.0 0.00 0.00 0.00 64 1014.2
20260905022016 64 80 2.0 6.0 0.00 0.00 0.00 64 1014.2
20260905021522 64 92 1.0 3.0 0.00 0.00 0.00 64 1014.2
20260905021019 64 129 1.0 3.0 0.00 0.00 0.00 63 1014.2
20260905020516 64 78 3.0 6.0 0.00 0.00 0.00 65 1014.2
20260905020017 64 96 1.0 3.0 0.00 0.00 0.00 67 1014.2
20260905015517 64 75 2.0 5.0 0.00 0.00 0.00 66 1014.2
20260905015036 65 69 2.0 5.0 0.00 0.00 0.00 65 1014.2
20260905014517 65 83 3.0 6.0 0.00 0.00 0.00 66 1014.2
20260905014037 65 70 4.0 7.0 0.00 0.00 0.00 65 1014.2
20260905013516 65 69 4.0 10.0 0.00 0.00 0.00 64 1014.1
20260905013016 66 69 4.0 8.0 0.00 0.00 0.00 64 1014.1
20260905012517 66 70 5.0 9.0 0.00 0.00 0.00 62 1014.0
20260905012017 67 97 4.0 9.0 0.00 0.00 0.00 61 1013.9
20260905011537 67 99 3.0 7.0 0.00 0.00 0.00 61 1013.8
20260905011017 67 185 3.0 6.0 0.00 0.00 0.00 61 1013.7
20260905010517 68 172 3.0 9.0 0.00 0.00 0.00 59 1013.6
20260905010058 68 170 3.0 6.0 0.00 0.00 0.00 59 1013.6
20260905005537 68 150 3.0 7.0 0.00 0.00 0.00 59 1013.6
20260905005033 68 145 6.0 9.0 0.00 0.00 0.00 58 1013.5
20260905004517 69 134 5.0 8.0 0.00 0.00 0.00 57 1013.5
20260905004017 70 148 5.0 9.0 0.00 0.00 0.00 55 1013.4
20260905003517 71 146 5.0 9.0 0.00 0.00 0.00 51 1013.3
20260905003018 72 154 4.0 10.0 0.00 0.00 0.00 44 1013.1
20260905002517 72 182 3.0 6.0 0.00 0.00 0.00 44 1013.0
20260905002021 74 211 3.0 7.0 0.00 0.00 0.00 45 1013.0
20260905001519 75 199 2.0 4.0 0.00 0.00 0.00 43 1013.0
20260905001017 75 27 1.0 2.0 0.00 0.00 0.00 41 1013.0
20260905000517 74 323 1.0 3.0 0.00 0.00 0.00 42 1012.9
20260905000020 74 194 1.0 4.0 0.00 0.00 0.00 44 1012.9
20260904235520 74 239 1.0 4.0 0.00 0.00 0.00 43 1012.9
20260904235041 73 278 1.0 3.0 0.00 0.00 0.00 43 1012.9
20260904234524 72 247 1.0 3.0 0.00 0.00 0.00 44 1012.9
20260904234020 71 271 2.0 4.0 0.00 0.00 0.00 45 1012.9
20260904233519 71 324 2.0 5.0 0.00 0.00 0.00 46 1012.9
20260904233019 71 187 2.0 4.0 0.00 0.00 0.00 46 1012.9
20260904232519 72 215 3.0 7.0 0.00 0.00 0.00 46 1012.8
20260904232019 72 255 2.0 7.0 0.00 0.00 0.00 46 1012.8
20260904231520 72 350 2.0 6.0 0.00 0.00 0.00 49 1012.7
20260904231017 73 22 3.0 7.0 0.00 0.00 0.00 47 1012.7
20260904230521 73 315 1.0 4.0 0.00 0.00 0.00 47 1012.7
20260904230020 72 297 2.0 4.0 0.00 0.00 0.00 48 1012.7
20260904225516 72 261 2.0 5.0 0.00 0.00 0.00 49 1012.7
20260904225016 72 301 2.0 4.0 0.00 0.00 0.00 49 1012.8
20260904224516 72 4 2.0 4.0 0.00 0.00 0.00 49 1012.7
20260904224019 71 278 2.0 6.0 0.00 0.00 0.00 50 1012.7
20260904223516 71 331 2.0 5.0 0.00 0.00 0.00 50 1012.6
20260904223037 71 267 3.0 8.0 0.00 0.00 0.00 51 1012.6
20260904222517 71 297 3.0 8.0 0.00 0.00 0.00 50 1012.7
20260904222017 71 283 2.0 7.0 0.00 0.00 0.00 51 1012.7
20260904221517 71 256 3.0 6.0 0.00 0.00 0.00 52 1012.7
20260904221017 71 322 2.0 8.0 0.00 0.01 0.00 52 1012.6
20260904220521 71 291 2.0 6.0 0.00 0.01 0.00 52 1012.7
20260904220017 72 286 3.0 7.0 0.00 0.01 0.00 51 1012.6
20260904215517 72 357 1.0 7.0 0.00 0.02 0.00 52 1012.6
20260904215057 72 326 1.0 5.0 0.00 0.02 0.00 51 1012.6
20260904214558 72 350 2.0 6.0 0.00 0.02 0.00 51 1012.6
20260904214017 72 253 1.0 6.0 0.00 0.02 0.00 50 1012.6
20260904213558 72 294 2.0 5.0 0.00 0.02 0.00 51 1012.6
20260904213037 72 105 1.0 3.0 0.00 0.02 0.00 52 1012.6
20260904212518 72 231 1.0 3.0 0.00 0.02 0.00 51 1012.6
20260904212021 71 30 1.0 4.0 0.00 0.02 0.00 52 1012.6
20260904211517 71 7 1.0 2.0 0.00 0.02 0.00 53 1012.6
20260904211020 70 356 1.0 4.0 0.00 0.02 0.00 54 1012.6
20260904210518 70 278 2.0 6.0 0.00 0.02 0.00 54 1012.6
20260904210021 71 278 2.0 5.0 0.00 0.02 0.00 53 1012.6
20260904205522 71 265 2.0 5.0 0.00 0.02 0.00 54 1012.6
20260904205018 70 317 2.0 6.0 0.00 0.02 0.00 55 1012.6
20260904204518 70 223 2.0 4.0 0.00 0.02 0.00 56 1012.6
20260904204018 69 332 2.0 6.0 0.00 0.02 0.00 57 1012.6
20260904203519 70 201 2.0 5.0 0.00 0.02 0.00 55 1012.6
20260904203018 69 236 1.0 4.0 0.00 0.02 0.00 57 1012.7
20260904202521 69 227 1.0 3.0 0.00 0.02 0.00 56 1012.7
20260904202018 69 321 1.0 3.0 0.00 0.02 0.00 57 1012.7
20260904201522 68 289 2.0 5.0 0.00 0.02 0.00 58 1012.7
20260904201019 68 20 2.0 5.0 0.00 0.02 0.00 59 1012.7
20260904200520 67 188 1.0 3.0 0.00 0.02 0.00 62 1012.6
20260904200041 66 251 3.0 5.0 0.00 0.02 0.00 63 1012.6
20260904195524 67 239 1.0 3.0 0.00 0.02 0.00 63 1012.5
20260904195036 67 281 2.0 5.0 0.00 0.02 0.00 62 1012.6
20260904194524 67 263 2.0 6.0 0.00 0.02 0.00 61 1012.7
20260904194016 67 232 2.0 5.0 0.00 0.02 0.00 61 1012.7
20260904193520 67 3 2.0 6.0 0.00 0.02 0.00 63 1012.8
20260904193040 66 274 2.0 5.0 0.00 0.02 0.00 62 1012.8
20260904192519 66 294 1.0 3.0 0.00 0.02 0.00 64 1012.7
20260904192016 66 316 2.0 4.0 0.00 0.02 0.00 64 1012.8
20260904191521 66 261 3.0 6.0 0.00 0.02 0.00 64 1012.9
20260904191017 65 259 2.0 5.0 0.00 0.02 0.00 64 1012.9
20260904190537 65 282 2.0 4.0 0.00 0.02 0.00 66 1012.9
20260904190017 65 265 2.0 5.0 0.00 0.02 0.00 67 1012.9
20260904185516 66 303 2.0 4.0 0.00 0.02 0.00 65 1012.9
20260904185016 65 282 2.0 3.0 0.00 0.02 0.00 66 1012.9
20260904184517 66 318 3.0 6.0 0.00 0.02 0.00 65 1013.0
20260904184017 66 257 3.0 7.0 0.00 0.02 0.00 64 1013.0
20260904183518 65 63 1.0 3.0 0.00 0.02 0.00 64 1013.0
20260904183021 65 143 3.0 6.0 0.00 0.02 0.00 66 1012.9
20260904182540 65 113 3.0 8.0 0.00 0.02 0.00 65 1012.9
20260904182059 65 138 3.0 6.0 0.00 0.02 0.00 66 1012.9
20260904181524 64 101 3.0 6.0 0.00 0.02 0.00 68 1012.8
20260904181018 64 134 4.0 7.0 0.00 0.02 0.00 67 1012.8
20260904180518 64 128 3.0 7.0 0.00 0.02 0.00 66 1012.8
20260904180018 64 110 2.0 6.0 0.00 0.02 0.00 67 1012.8
20260904175519 64 143 3.0 6.0 0.00 0.02 0.00 68 1012.8
20260904175018 64 144 3.0 6.0 0.00 0.02 0.00 68 1012.9
20260904174559 63 147 3.0 5.0 0.00 0.02 0.00 70 1012.9
20260904174200 63 135 4.0 6.0 0.00 0.02 0.00 70 1012.9
20260904173519 63 153 3.0 6.0 0.00 0.02 0.00 70 1012.9
20260904173041 63 92 2.0 4.0 0.00 0.02 0.00 72 1013.0
20260904172521 63 134 3.0 4.0 0.00 0.02 0.00 71 1012.9
20260904172024 63 133 2.0 6.0 0.00 0.02 0.00 71 1012.9
20260904171524 62 79 1.0 4.0 0.00 0.02 0.00 72 1013.0
20260904171018 62 273 2.0 3.0 0.00 0.02 0.00 73 1012.9
20260904170518 61 284 0.0 2.0 0.00 0.02 0.00 75 1012.9
20260904170018 61 132 1.0 3.0 0.00 0.02 0.00 77 1012.9
20260904165520 60 164 1.0 3.0 0.00 0.02 0.00 78 1012.9
20260904165019 60 181 0.0 2.0 0.00 0.02 0.00 79 1012.8
20260904164519 60 203 1.0 3.0 0.00 0.02 0.00 80 1012.8
20260904164022 60 130 1.0 4.0 0.00 0.02 0.00 80 1012.9
20260904163519 61 119 2.0 5.0 0.00 0.02 0.00 78 1013.0
20260904163019 60 133 1.0 3.0 0.00 0.02 0.00 80 1013.0
20260904162516 60 118 2.0 4.0 0.00 0.02 0.00 80 1013.0
20260904162016 60 249 1.0 3.0 0.00 0.02 0.00 80 1013.0
20260904161516 59 297 1.0 2.0 0.00 0.02 0.00 82 1012.9
20260904161016 59 272 1.0 3.0 0.00 0.02 0.00 82 1013.0
20260904160516 58 288 0.0 2.0 0.00 0.02 0.00 84 1012.9
20260904160036 58 319 1.0 2.0 0.00 0.02 0.00 84 1012.8
20260904155516 58 301 1.0 2.0 0.00 0.02 0.00 85 1012.7
20260904155039 57 185 0.0 2.0 0.00 0.02 0.00 86 1012.6
20260904154516 57 258 1.0 2.0 0.00 0.02 0.00 87 1012.6
20260904154019 57 257 1.0 2.0 0.00 0.02 0.00 88 1012.6
20260904153516 57 274 1.0 3.0 0.00 0.02 0.00 88 1012.6
20260904153028 56 268 1.0 2.0 0.00 0.02 0.00 89 1012.6
20260904152516 56 260 1.0 3.0 0.00 0.02 0.00 89 1012.5
20260904152020 56 272 1.0 2.0 0.00 0.02 0.00 90 1012.5
20260904151539 56 253 0.0 2.0 0.00 0.02 0.00 91 1012.5
20260904151016 55 265 1.0 2.0 0.00 0.02 0.00 91 1012.3
20260904150518 55 254 0.0 2.0 0.00 0.02 0.00 92 1012.3
20260904150018 55 206 0.0 1.0 0.00 0.02 0.00 92 1012.3
20260904145518 55 0.0 0.0 0.00 0.02 0.00 92 1012.2
20260904145018 55 0.0 0.0 0.00 0.02 0.00 92 1012.1
20260904144517 55 297 0.0 1.0 0.00 0.02 0.00 92 1012.0
20260904144018 55 281 0.0 2.0 0.00 0.02 0.00 92 1011.9
20260904143521 55 263 0.0 1.0 0.00 0.02 0.00 92 1011.9
20260904143018 55 251 1.0 2.0 0.00 0.02 0.00 92 1011.9
20260904142518 55 270 1.0 2.0 0.00 0.02 0.00 92 1011.9
20260904142018 55 267 1.0 2.0 0.00 0.02 0.00 92 1011.8
20260904141538 55 271 1.0 3.0 0.00 0.02 0.00 92 1011.8
20260904141016 54 246 0.0 1.0 0.00 0.02 0.00 92 1011.7
20260904140516 54 227 0.0 1.0 0.00 0.02 0.00 92 1011.7
20260904140016 54 171 0.0 2.0 0.00 0.02 0.00 92 1011.7
20260904135517 54 196 0.0 2.0 0.00 0.02 0.00 92 1011.6
20260904135017 54 247 1.0 2.0 0.00 0.02 0.00 93 1011.6
20260904134521 54 280 0.0 2.0 0.00 0.02 0.00 93 1011.5
20260904134017 54 276 0.0 1.0 0.00 0.02 0.00 93 1011.4
20260904133517 54 220 0.0 2.0 0.00 0.02 0.00 93 1011.4
20260904133018 54 204 1.0 2.0 0.00 0.02 0.00 93 1011.3
20260904132538 54 0.0 0.0 0.00 0.02 0.00 93 1011.3
20260904132017 54 266 0.0 1.0 0.00 0.02 0.00 93 1011.3
20260904131519 54 330 0.0 1.0 0.00 0.02 0.00 92 1011.2
20260904131020 54 302 0.0 1.0 0.00 0.02 0.00 92 1011.1
20260904130518 54 283 0.0 2.0 0.00 0.02 0.00 92 1011.0
20260904130019 54 252 1.0 2.0 0.00 0.02 0.00 92 1011.0
20260904125525 54 254 1.0 2.0 0.00 0.02 0.00 92 1010.9
20260904125016 54 252 0.0 1.0 0.00 0.02 0.00 92 1011.0
20260904124520 54 255 0.0 2.0 0.00 0.02 0.00 92 1011.0
20260904124018 54 256 1.0 2.0 0.00 0.04 0.00 92 1011.0
20260904123515 54 271 0.0 2.0 0.00 0.05 0.00 92 1010.9
20260904123016 54 289 0.0 1.0 0.00 0.05 0.00 92 1010.9
20260904122516 54 289 0.0 1.0 0.00 0.05 0.00 92 1011.0
20260904122016 54 276 0.0 2.0 0.00 0.05 0.00 93 1010.9
20260904121516 54 275 0.0 2.0 0.00 0.05 0.00 93 1010.9
20260904121018 54 298 0.0 2.0 0.00 0.05 0.00 93 1010.8
20260904120518 54 286 0.0 1.0 0.00 0.05 0.00 92 1010.7
20260904120044 54 295 0.0 2.0 0.00 0.05 0.00 92 1010.7
20260904115516 55 258 0.0 2.0 0.00 0.05 0.00 92 1010.6
20260904115018 55 254 0.0 2.0 0.00 0.05 0.00 92 1010.6
20260904114517 55 299 0.0 1.0 0.00 0.05 0.00 92 1010.6
20260904114020 55 314 1.0 2.0 0.00 0.05 0.00 91 1010.5
20260904113517 55 291 1.0 2.0 0.00 0.05 0.00 91 1010.4
20260904113018 55 280 1.0 3.0 0.00 0.05 0.00 92 1010.3
20260904112517 55 265 1.0 3.0 0.00 0.05 0.00 92 1010.3
20260904112037 55 261 1.0 2.0 0.00 0.05 0.00 91 1010.3
20260904111517 55 272 1.0 2.0 0.00 0.05 0.00 91 1010.3
20260904111037 55 267 1.0 2.0 0.00 0.05 0.00 91 1010.3
20260904110542 55 259 1.0 2.0 0.00 0.05 0.00 91 1010.3
20260904110039 55 255 1.0 2.0 0.00 0.05 0.00 91 1010.3
20260904105519 55 255 0.0 2.0 0.00 0.05 0.00 90 1010.3
20260904105018 56 253 0.0 1.0 0.00 0.05 0.00 90 1010.3
20260904104517 56 262 0.0 2.0 0.00 0.05 0.00 89 1010.3
20260904104018 57 253 1.0 2.0 0.00 0.05 0.00 89 1010.3
20260904103518 57 275 0.0 1.0 0.00 0.05 0.00 88 1010.3
20260904103018 57 215 1.0 2.0 0.00 0.05 0.00 88 1010.3
20260904102558 57 191 1.0 3.0 0.00 0.05 0.00 88 1010.2
20260904102018 57 201 1.0 2.0 0.00 0.05 0.00 88 1010.2
20260904101519 57 177 0.0 1.0 0.00 0.05 0.00 88 1010.2
20260904101018 57 145 1.0 3.0 0.00 0.05 0.00 88 1010.2
20260904100518 57 155 1.0 3.0 0.00 0.05 0.00 88 1010.1
20260904100018 57 198 1.0 3.0 0.00 0.05 0.00 88 1010.1
20260904095519 57 143 1.0 4.0 0.00 0.05 0.00 87 1010.1
20260904095016 57 131 1.0 5.0 0.00 0.05 0.00 87 1010.2
20260904094518 57 167 2.0 4.0 0.00 0.05 0.00 86 1010.2
20260904094019 57 132 0.0 2.0 0.00 0.05 0.00 85 1010.3
20260904093518 57 156 0.0 1.0 0.00 0.05 0.00 85 1010.3
20260904093039 57 152 0.0 2.0 0.00 0.05 0.00 84 1010.3
20260904092538 57 240 0.0 1.0 0.00 0.05 0.00 86 1010.2
20260904092019 57 219 0.0 2.0 0.00 0.05 0.00 86 1010.3
20260904091516 57 281 0.0 1.0 0.00 0.05 0.00 86 1010.2
20260904091016 57 309 0.0 1.0 0.00 0.05 0.00 86 1010.2
20260904090516 57 226 1.0 2.0 0.00 0.05 0.00 86 1010.2
20260904090016 57 225 0.0 1.0 0.00 0.05 0.00 86 1010.1
20260904085516 57 0.0 0.0 0.00 0.05 0.00 85 1010.0
20260904085016 57 211 0.0 1.0 0.00 0.05 0.00 85 1009.9
20260904084516 57 0.0 0.0 0.00 0.05 0.00 84 1009.8
20260904084016 57 247 0.0 1.0 0.00 0.05 0.00 84 1009.7
20260904083516 57 252 0.0 2.0 0.00 0.05 0.00 84 1009.6
20260904083019 57 297 1.0 2.0 0.00 0.05 0.00 83 1009.8
20260904082516 57 316 0.0 1.0 0.00 0.05 0.00 82 1009.9
20260904082016 58 238 0.0 1.0 0.00 0.05 0.00 82 1010.0
20260904081517 58 302 0.0 1.0 0.00 0.05 0.00 81 1010.1
20260904081017 58 308 0.0 1.0 0.00 0.05 0.00 78 1010.2
20260904080517 58 226 0.0 1.0 0.00 0.05 0.00 77 1010.2
20260904080040 58 207 1.0 2.0 0.00 0.05 0.00 78 1010.2
20260904075520 58 192 1.0 4.0 0.00 0.05 0.00 79 1010.2
20260904075017 58 170 1.0 3.0 0.00 0.05 0.00 81 1010.2
20260904074537 58 185 1.0 3.0 0.00 0.05 0.00 81 1010.2
20260904074018 59 190 1.0 3.0 0.00 0.05 0.00 81 1010.2
20260904073517 59 198 2.0 3.0 0.00 0.05 0.00 80 1010.2
20260904073037 59 204 2.0 5.0 0.00 0.05 0.00 81 1010.1
20260904072517 59 195 1.0 4.0 0.00 0.05 0.00 81 1010.2
20260904072018 59 182 2.0 5.0 0.00 0.05 0.00 81 1010.2
20260904071517 59 194 2.0 5.0 0.00 0.05 0.00 81 1010.2
20260904071038 59 193 2.0 5.0 0.00 0.05 0.00 81 1010.2
20260904070518 59 186 2.0 4.0 0.00 0.05 0.00 81 1010.2
20260904070018 59 190 2.0 4.0 0.00 0.05 0.00 80 1010.2
20260904065518 60 177 2.0 5.0 0.00 0.05 0.05 80 1010.2
20260904065018 60 172 2.0 5.0 0.00 0.05 0.05 81 1010.1
20260904064518 60 205 1.0 2.0 0.00 0.05 0.05 80 1010.1
20260904064018 60 202 0.0 2.0 0.00 0.05 0.05 80 1010.1
20260904063519 60 238 1.0 2.0 0.00 0.05 0.05 79 1010.1
20260904063019 60 213 0.0 2.0 0.00 0.05 0.05 79 1010.1
20260904062518 60 190 2.0 4.0 0.00 0.05 0.05 78 1010.1
20260904062016 60 181 1.0 4.0 0.00 0.05 0.05 76 1010.1
20260904061536 60 212 0.0 2.0 0.00 0.05 0.05 76 1010.0
20260904061019 60 214 0.0 2.0 0.00 0.05 0.05 75 1010.0
20260904060519 60 204 0.0 2.0 0.00 0.05 0.05 76 1010.0
20260904060018 60 177 0.0 2.0 0.00 0.05 0.05 77 1009.9
20260904055616 60 207 0.0 1.0 0.00 0.05 0.05 78 1009.9
20260904055016 60 201 0.0 1.0 0.00 0.05 0.05 78 1009.9
20260904054516 60 160 0.0 1.0 0.00 0.05 0.05 77 1009.9
20260904054016 60 228 0.0 1.0 0.00 0.05 0.05 77 1009.9
20260904053516 60 236 0.0 1.0 0.00 0.05 0.05 77 1009.9
20260904053016 61 247 0.0 1.0 0.00 0.05 0.05 76 1009.8
20260904052524 61 220 0.0 1.0 0.00 0.05 0.05 76 1009.9
20260904052016 61 216 1.0 2.0 0.00 0.05 0.05 76 1009.9
20260904051516 61 229 0.0 2.0 0.00 0.05 0.05 76 1009.9
20260904051019 60 183 0.0 2.0 0.00 0.05 0.05 76 1010.0
20260904050516 60 148 0.0 1.0 0.00 0.05 0.05 76 1010.0
20260904050016 60 126 0.0 0.0 0.00 0.05 0.05 76 1010.0
20260904045517 60 0.0 0.0 0.00 0.05 0.05 75 1010.0